www.pogodaiklimat.ru

Погода и климат >> Архив погоды >> Новая Зеландия >> Веллингтон


ПОГОДА в Веллингтоне

  • Прогноз погоды в Веллингтоне
  • Монитор погоды в Веллингтоне

АРХИВ ПОГОДЫ в Веллингтоне

Время (UTC), дата Ветер
(напр.,м/с)
 
Видим.   Явления Облачность Т
(С)
Тd
(С)
f
(%)
Тe
(С)
Тes
(С)
Комфортность P
(гПа)
Po
(гПа)
Тmin
(С)
Tmax
(С)
R
(мм)
R24
(мм)
S
(см)
12 13.09 Ю 5 4000 м н/о +10.5 +10.0 97 +8 +8 1011.8 1010.3 +15.6 13
15 13.09 Ю 5 4000 м н/о +10.1 +9.7 97 +7 +7 1012.1 1010.6
18 13.09 ЮВ 5 4000 м н/о +10.2 +9.9 98 +7 +7 1012.2 1010.7 2
21 13.09 С 3 10 км н/о +10.8 +10.3 97 +9 +9 1012.3 1010.8
00 14.09 С 5 4000 м н/о +12.7 +11.7 94 +10 +10 1010.4 1008.9 +10.0 19
03 14.09 С 9 20 км н/о +14.6 +10.6 77 +12 +12 1008.9 1007.4
06 14.09 С 6 20 км н/о +13.7 +9.7 77 +12 +12 1008.4 1006.9 5
09 14.09 СВ 3 20 км н/о +12.1 +9.9 86 +10 +10 1008.0 1006.5
12 14.09 С 2 20 км н/о +10.8 +9.3 90 +9 +9 1005.7 1004.2 +15.2 1
15 14.09 С 5 20 км н/о +11.2 +9.0 86 +9 +9 1003.6 1002.1
18 14.09 С 7 20 км н/о +10.5 +8.6 88 +7 +7 1002.8 1001.3 2
21 14.09 ЮЗ 7 4000 м н/о +9.7 +8.7 93 +6 +6 1005.8 1004.3
00 15.09 ЮЗ 4 10 км н/о +10.1 +9.0 93 +7 +7 1007.0 1005.5 +9.5 18
03 15.09 С 5 20 км н/о +14.8 +8.1 64 +13 +13 1005.8 1004.3
06 15.09 С 4 10 км н/о +13.1 +6.2 63 +11 +11 1006.2 1004.7
09 15.09 СЗ 2 4000 м н/о +12.1 +4.6 60 +11 +11 1007.5 1006.0
12 15.09 С 3 10 км н/о +10.8 +2.5 56 +9 +9 1007.8 1006.3 +15.1
15 15.09 С 6 20 км н/о +11.4 +4.0 60 +9 +9 1006.9 1005.4
18 15.09 С 7 20 км н/о +10.6 +5.5 71 +7 +7 1008.1 1006.6
21 15.09 С 9 20 км н/о +13.0 +6.4 64 +10 +10 1010.5 1009.0
00 16.09 С 8 20 км н/о +14.0 +7.2 64 +12 +12 1011.3 1009.8 +8.6
03 16.09 С 9 20 км н/о +13.5 +9.9 79 +11 +11 1009.9 1008.4
06 16.09 С 9 10 км н/о +13.8 +9.7 76 +11 +11 1009.4 1007.9
09 16.09 С 13 10 км н/о +13.6 +10.8 83 +10 +10 1007.6 1006.1
12 16.09 С 12 10 км н/о +13.8 +10.4 80 +11 +11 1007.3 1005.8 +15.3
15 16.09 С 12 10 км н/о +14.1 +11.5 84 +11 +11 1005.5 1004.0
18 16.09 С 13 10 км н/о +14.5 +12.3 87 +11 +11 1007.0 1005.5
21 16.09 С 6 20 км н/о +14.4 +10.3 76 +12 +12 1009.9 1008.4
00 17.09 С 8 20 км н/о +16.4 +9.6 64 +15 +15 1011.8 1010.3 +13.2
03 17.09 СЗ 6 20 км н/о +16.1 +8.3 60 +15 +15 1013.5 1012.0
06 17.09 В 5 20 км н/о +13.5 +5.3 58 +12 +12 1016.5 1015.0
09 17.09 С 2 20 км н/о +9.1 +3.6 68 +8 +8 1021.2 1019.7
12 17.09 СВ 2 20 км н/о +8.1 +5.1 81 +6 +6 1024.6 1023.1 +16.8
15 17.09 СВ 2 20 км н/о +5.1 +3.5 89 +2 +2 1027.0 1025.5
18 17.09 С 2 20 км н/о +4.9 +3.4 90 +2 +2 1028.9 1027.4
21 17.09 С 3 20 км н/о +9.9 +5.9 76 +8 +8 1030.6 1029.1
00 18.09 С 6 10 км н/о +13.8 +5.6 58 +12 +12 1030.2 1028.7 +4.8
03 18.09 С 7 20 км н/о +14.3 +4.0 50 +12 +12 1029.0 1027.5
06 18.09 С 5 20 км н/о +11.8 +5.2 64 +9 +9 1029.5 1028.0
09 18.09 СВ 5 20 км н/о +10.2 +5.9 75 +7 +7 1031.2 1029.7
12 18.09 СВ 4 20 км н/о +8.6 +5.7 82 +6 +6 1031.9 1030.4 +14.6
15 18.09 СВ 4 20 км н/о +7.6 +5.3 85 +4 +4 1032.1 1030.6
18 18.09 С 5 20 км н/о +7.5 +5.5 87 +4 +4 1032.9 1031.4
21 18.09 СВ 6 20 км н/о +11.8 +5.9 67 +9 +9 1033.6 1032.1
00 19.09 С 4 20 км н/о +14.4 +5.2 54 +13 +13 1033.2 1031.7 +6.5
03 19.09 С 5 20 км н/о +15.0 +5.5 53 +14 +14 1031.6 1030.1
06 19.09 С 5 20 км н/о +11.5 +6.5 71 +9 +9 1031.5 1030.0
09 19.09 СВ 2 20 км н/о +9.4 +6.0 79 +8 +8 1032.4 1030.9
12 19.09 СВ 2 20 км н/о +8.3 +6.0 85 +7 +7 1032.9 1031.4 +15.3
15 19.09 СВ 2 20 км н/о +6.3 +4.8 90 +4 +4 1033.3 1031.8
18 19.09 СВ 1 20 км н/о +5.8 +4.6 92 +4 +4 1034.6 1033.1
21 19.09 Ю 5 10 км н/о +11.4 +9.3 87 +9 +9 1036.8 1035.3
00 20.09 Ю 8 10 км н/о +12.0 +8.2 78 +9 +9 1037.5 1036.0 +4.9
03 20.09 Ю 9 10 км н/о +12.2 +8.7 79 +9 +9 1036.8 1035.3
06 20.09 ЮВ 10 20 км н/о +10.5 +8.3 86 +6 +6 1037.0 1035.5
09 20.09 ЮВ 5 20 км н/о +10.5 +6.4 76 +8 +8 1037.6 1036.1

 

Местоположение метеостанции Веллингтон (Новая Зеландия): широта -41.33 долгота 174.80 высота над уровнем моря 12 м.

В архиве по умолчанию представлена погода в Веллингтоне за последнюю неделю. Архивные данные за месяц целиком и за предыдущие месяцы, начиная с января 2011 года, Вы можете получить, выбрав интересующий диапазон дат из раскрывающегося списка и нажав кнопку "Ввод!".


*Определитесь, кто Вы:
робот инопланетянин человек

Внимание! Время в таблицах - всемирное. Для получения местного времени необходимо прибавить поправку, которая равна 12 ч.

Смотрите также архив погоды в соседних городах и на ближайших метеорологических станциях:

Погода в Парапарауму (Новая Зеландия) (50 км)
Погода на Мысе Кэмпбелл (Новая Зеландия) (67 км)
Погода в Каслпойнт (Новая Зеландия) (129 км)
Погода в Нельсоне (Новая Зеландия) (131 км)
Погода в Пальмерстон-Норте (Новая Зеландия) (132 км)
Погода в Кайкуре (Новая Зеландия) (151 км)
Погода на Косе Farewell (Новая Зеландия) (174 км)
Погода на Уэйауру (Новая Зеландия) (223 км)
Погода в Нью-Плимуте (Новая Зеландия) (263 км)
Погода в Нейпире (Новая Зеландия) (272 км)

Пояснения к столбцам:

Ветер - указаны скорость ветра в м/с - средняя за 10 мин, порывы в срок и между сроками (в фигурных скобках) и направление, откуда дует ветер: С - северный, СВ - северо-восточный, В - восточный, ЮВ - юго-восточный, Ю - южный, ЮЗ - юго-западный, З - западный, СЗ - северо-западный.
Видимость - горизонтальная дальность видимости в метрах или километрах. При видимости от 1 до 10 км при отсутствии осадков обычно наблюдается дымка, при ухудшении видимости до 1 км и менее - туман. В сухую погоду видимость может ухудшаться дымом, пылью или мглою.
Явления - указаны атмосферные явления, наблюдавшиеся в срок или в последний час перед сроком; фигурными скобками обозначены явления, наблюдавшиеся между сроками (за 1-3 часа до срока); квадратными скобками обозначены град или гололедные отложения с указанием их диаметра в мм.
Облачность - указаны через наклонную черту общая и нижняя облачность в баллах и высота нижней границы облаков в метрах; квадратными скобками обозначены формы облаков: Ci - перистые, Cs - перисто-слоистые, Cc - перисто-кучевые, Ac - высококучевые, As - высокослоистые, Sc - слоисто-кучевые, Ns - слоисто-дождевые, Cu - кучевые, Cb - кучево-дождевые. Подробнее классификацию облаков см. в Атласе облаков (PDF).
T - Температура воздуха - температура, измеренная на высоте 2 м над землей.
Td - Температура точки росы - температура, при понижении до которой содержащийся в воздухе водяной пар достигнет насыщения.
f - Относительная влажность воздуха - влажноcть воздуха, измеренная на высоте 2 м над землей.
Te - Эффективная температура - температура, которую ощущает одетый по сезону человек в тени. Характеристика душности погоды. При расчете учитывается влияние влажности воздуха и скорости ветра на теплоощущения человека.
Tes - Эффективная температура на солнце - температура, которую ощущает человек, с поправкой на солнечный нагрев. Характеристика знойности погоды. Зависит от высоты солнца над горизонтом, облачности и скорости ветра. Ночью, в пасмурную погоду, а также при ветре 12 м/с и более поправка равна нулю.
P - Атмосферное давление - приведенное к уровню моря атмосферное давление.
Po - Атмосферное давление - измеренное на уровне метеостанции атмосферное давление.
Tmin - Минимальная температура - минимум температуры воздуха на высоте 2 м над землей.
Tmax - Максимальная температура - максимум температуры воздуха на высоте 2 м над землей.
R - Количество осадков - Количество выпавших осадков за период времени, мм. При наведении курсора мыши на число - период времени, за который выпало указанное количество осадков.
R24 - Количество осадков - Количество выпавших осадков за 24 часа, мм.
S - Снежный покров - Высота снежного покрова, см. При наведении курсора мыши на число - состояние снежного покрова и степень покрытия местности в баллах.